Hourly Data Report for February 09, 2003

TORONTO CITY
ONTARIO

43°40'00.000" N
79°24'00.000" W
112.50 m
6158355
71508
XTO

Download Data

Hourly Data (February 2003)
Hourly Data Report for February 9, 2003
TIME
LST
Temp Definition
°C
Dew Point Definition
°C
Rel Hum Definition
%
Precip. Amount Definition
mm

Wind Dir Definition
10's deg

Wind Spd Definition
km/h
Visibility Definition
km
Stn Press Definition
kPa
Hmdx Definition


Wind Chill Definition


Weather Definition


00:00 -3.2 -5.9 82     0 LegendMM 99.67     LegendNANA
01:00
02:00 -2.8 -5.2 84     0 LegendMM 99.61     LegendNANA
03:00 -2.8 -6.5 76     0 LegendMM 99.61     LegendNANA
04:00 -2.8 -8.0 67     0 LegendMM 99.61     LegendNANA
05:00 -2.7 -7.9 67     0 LegendMM 99.64     LegendNANA
06:00 -3.4 -6.8 77     0 LegendMM 99.69     LegendNANA
07:00 -3.5 -7.2 75     0 LegendMM 99.70     LegendNANA
08:00 -3.4 -9.3 64     0 LegendMM 99.78     LegendNANA
09:00 -7.0 -11.6 70     0 LegendMM 99.95     LegendNANA
10:00 -5.4 -11.6 62     0 LegendMM 100.06     LegendNANA
11:00 -3.8 -13.3 48     0 LegendMM 100.15     LegendNANA
12:00 -5.5 -14.4 49     0 LegendMM 100.18     LegendNANA
13:00 -3.9 -14.7 43     0 LegendMM 100.16     LegendNANA
14:00 -4.9 -15.9 42     0 LegendMM 100.16     LegendNANA
15:00 -5.6 -14.5 49     0 LegendMM 100.18     LegendNANA
16:00 -6.2 -16.8 43     0 LegendMM 100.18     LegendNANA
17:00 -6.4 -15.9 47     0 LegendMM 100.12     LegendNANA
18:00 -6.7 -17.6 42     0 LegendMM 100.10     LegendNANA
19:00 -7.1 -17.1 45     0 LegendMM 100.11     LegendNANA
20:00 -6.7 -15.0 52     0 LegendMM 100.08     LegendNANA
21:00 -5.8 -12.8 58     0 LegendMM 99.98     LegendNANA
22:00 -6.0 -12.2 61     0 LegendMM 99.85     LegendNANA
23:00 -6.0 -10.9 68     0 LegendMM 99.80     LegendNANA

Notes on Data Quality.

Legend

  • E = Estimated
  • M = Missing
  • NA = Not Available*
  • [empty] = Indicates an unobserved value
Date modified: